M0ADS Weather Reports


time (UTC)temp
C
wind
direction
speed
KPH
gust
KPH
rain 1hr
cm
rain 24hr
cm
rain mn
cm
humidity
%
barometer
mb
20260507170950 13 84 0.0 8.0 0.00 0.00 0.00 57 1013.7
20260507165450 13 143 0.0 6.4 0.00 0.00 0.00 57 1013.7
20260507163950 13 133 1.6 12.9 0.00 0.00 0.00 57 1013.7
20260507162450 14 184 0.0 4.8 0.00 0.00 0.00 57 1013.7
20260507160950 14 62 0.0 6.4 0.00 0.00 0.00 55 1013.7
20260507155445 14 140 0.0 6.4 0.00 0.00 0.00 56 1013.8
20260507153945 15 10 0.0 9.7 0.00 0.00 0.00 56 1013.8
20260507152448 13 260 0.0 6.4 0.00 0.00 0.00 58 1014.0
20260507150948 13 79 0.0 8.0 0.00 0.00 0.00 58 1014.2
20260507145448 13 90 0.0 4.8 0.00 0.00 0.00 58 1014.2
20260507143945 13 206 0.0 4.8 0.00 0.00 0.00 60 1014.3
20260507142446 12 78 0.0 6.4 0.00 0.00 0.00 61 1014.5
20260507140946 12 9 0.0 4.8 0.00 0.00 0.00 61 1014.6
20260507135444 12 156 0.0 8.0 0.00 0.00 0.00 61 1014.7
20260507133944 12 123 0.0 3.2 0.00 0.00 0.00 62 1014.6
20260507132444 12 134 0.0 4.8 0.00 0.00 0.00 62 1014.7
20260507130944 13 98 0.0 4.8 0.00 0.00 0.00 64 1014.6
20260507125444 13 119 1.6 8.0 0.00 0.00 0.00 63 1014.6
20260507123943 14 141 1.6 9.7 0.00 0.00 0.00 62 1014.7
20260507122443 14 143 0.0 9.7 0.00 0.00 0.00 62 1014.7
20260507120943 14 149 0.0 6.4 0.00 0.00 0.00 63 1014.9
20260507115441 13 238 0.0 4.8 0.00 0.00 0.00 65 1015.2
20260507113941 13 107 1.6 6.4 0.00 0.00 0.00 66 1015.0
20260507112441 12 121 1.6 6.4 0.00 0.00 0.00 69 1015.0
20260507110941 12 126 0.0 6.4 0.00 0.00 0.00 72 1015.3
20260507103937 11 342 0.0 11.3 0.00 0.00 0.00 75 1015.5
20260507102437 10 343 0.0 4.8 0.00 0.00 0.00 79 1015.6
20260507100935 10 288 0.0 8.0 0.00 0.00 0.00 79 1015.6
20260507095435 10 69 0.0 6.4 0.00 0.00 0.00 79 1015.6
20260507093934 10 319 0.0 4.8 0.00 0.00 0.00 80 1015.6
20260507092434 9 81 0.0 6.4 0.00 0.00 0.00 81 1015.5
20260507090934 8 85 0.0 6.4 0.00 0.00 0.00 81 1015.5
20260507085432 8 266 0.0 3.2 0.00 0.00 0.00 82 1015.6
20260507083931 8 180 0.0 6.4 0.00 0.00 0.00 81 1015.5
20260507082431 9 49 0.0 3.2 0.00 0.00 0.00 82 1015.6
20260507080930 8 63 0.0 4.8 0.00 0.00 0.00 82 1015.6
20260507075430 8 124 0.0 4.8 0.00 0.00 0.00 82 1015.5
20260507073928 8 113 0.0 4.8 0.00 0.00 0.00 84 1015.5
20260507072427 8 113 0.0 4.8 0.00 0.00 0.00 85 1015.4
20260507070926 8 342 0.0 3.2 0.00 0.00 0.00 87 1015.3
20260507065426 7 84 0.0 0.0 0.00 0.00 0.00 88 1015.3
20260507063926 7 84 0.0 4.8 0.00 0.00 0.00 90 1015.2
20260507062426 6 275 0.0 1.6 0.00 0.00 0.00 90 1015.2
20260507060926 5 238 0.0 0.0 0.00 0.00 0.00 90 1015.2
20260507055426 4 238 0.0 0.0 0.00 0.00 0.00 90 1015.2
20260507053924 3 238 0.0 0.0 0.00 0.00 0.00 90 1015.2
20260507052423 3 238 0.0 0.0 0.00 0.00 0.00 90 1015.0
20260507050922 3 238 0.0 0.0 0.00 0.00 0.00 90 1015.0
20260507045421 3 116 0.0 0.0 0.00 0.00 0.00 90 1015.0
20260507043921 2 116 0.0 0.0 0.00 0.00 0.00 90 1015.0
20260507042421 2 116 0.0 0.0 0.00 0.00 0.00 90 1014.9
20260507040920 2 116 0.0 0.0 0.00 0.00 0.00 90 1014.9
20260507035419 2 116 0.0 0.0 0.00 0.00 0.00 90 1014.9
20260507033919 2 116 0.0 0.0 0.00 0.00 0.00 90 1015.2
20260507032419 2 116 0.0 0.0 0.00 0.00 0.00 90 1015.2
20260507030917 2 116 0.0 0.0 0.00 0.00 0.00 90 1015.2
20260507025417 2 116 0.0 0.0 0.00 0.00 0.00 90 1015.2
20260507023916 2 116 0.0 0.0 0.00 0.00 0.00 89 1015.2
20260507022415 2 116 0.0 0.0 0.00 0.00 0.00 89 1015.2
20260507020915 2 116 0.0 0.0 0.00 0.00 0.00 89 1015.2
20260507015413 2 116 0.0 0.0 0.00 0.00 0.00 89 1015.2
20260507013913 2 116 0.0 0.0 0.00 0.00 0.00 89 1015.2
20260507012413 2 116 0.0 0.0 0.00 0.00 0.00 89 1015.3
20260507010913 2 116 0.0 0.0 0.00 0.00 0.00 89 1015.4
20260507005413 2 116 0.0 0.0 0.00 0.00 0.00 89 1015.5
20260507003912 3 116 0.0 0.0 0.00 0.00 0.00 88 1015.5
20260507002411 3 116 0.0 0.0 0.00 0.00 0.00 88 1015.5
20260507000910 3 116 0.0 0.0 0.00 0.00 0.00 88 1015.6
20260506235410 3 116 0.0 0.0 0.00 0.00 0.00 88 1015.6
20260506233909 3 116 0.0 0.0 0.00 0.00 0.00 87 1015.7
20260506232408 3 116 0.0 0.0 0.00 0.00 0.00 86 1015.6
20260506230908 4 116 0.0 0.0 0.00 0.00 0.00 86 1015.6
20260506225408 4 116 0.0 0.0 0.00 0.00 0.00 85 1015.7
20260506223908 5 116 0.0 0.0 0.00 0.00 0.00 84 1015.7
20260506222408 5 116 0.0 0.0 0.00 0.00 0.00 84 1015.8
20260506220906 5 116 0.0 0.0 0.00 0.00 0.00 83 1015.8
20260506215406 5 116 0.0 0.0 0.00 0.00 0.00 83 1015.7
20260506213906 5 116 0.0 1.6 0.00 0.00 0.00 82 1015.6
20260506212406 5 116 0.0 0.0 0.00 0.00 0.00 81 1015.6
20260506210904 6 116 0.0 0.0 0.00 0.00 0.00 80 1015.5
20260506205404 6 116 0.0 0.0 0.00 0.00 0.00 79 1015.3
20260506203904 6 116 0.0 0.0 0.00 0.00 0.00 79 1015.3
20260506202404 6 116 0.0 0.0 0.00 0.00 0.00 78 1015.2
20260506200903 7 116 0.0 1.6 0.00 0.00 0.00 77 1014.9
20260506195402 7 116 0.0 3.2 0.00 0.00 0.00 76 1014.8
20260506193901 7 119 0.0 1.6 0.00 0.00 0.00 74 1014.7
20260506192402 8 70 0.0 4.8 0.00 0.00 0.00 72 1014.5
20260506190901 8 155 1.6 6.4 0.00 0.00 0.00 71 1014.5
20260506185359 8 128 0.0 8.0 0.00 0.00 0.00 71 1014.4
20260506183859 8 157 0.0 6.4 0.00 0.00 0.00 71 1014.4
20260506182359 8 137 0.0 6.4 0.00 0.00 0.00 71 1014.4
20260506180859 8 38 0.0 3.2 0.00 0.00 0.00 70 1014.4
20260506175357 8 116 0.0 4.8 0.00 0.00 0.00 70 1014.3
20260506173857 9 142 0.0 3.2 0.00 0.00 0.00 68 1014.2
20260506172357 9 143 1.6 8.0 0.00 0.00 0.00 68 1014.2